Вернуться в каталог

CZ-6A DEB

АктивенSSO
NORAD 54298·DEBRIS·🇨🇳 China

Запущен Nov 11, 2022 с Taiyuan Satellite Launch Center

Loading…

Ближайшие Пролёты (ближайшие 24 часа)

TLE

СвежийSource: Space-Track

Эпоха: Sep 13, 2026, 17:06 UTC

1 54298U 22151AR  26256.71314491 -.00000043  00000-0 -90898-7 0  9990
2 54298  98.8426 242.7668 0062757 111.5538 249.2335 14.06959142196480

Отслеживайте CZ-6A DEB в реальном времени с AllMySat

Download on the App Store